Location: Newark
(45.8572°N, 3.5483°E)
Time: 11:34:55
(UTC+00:00)

Envisat - Visible Passes

Search period start: 23 February 2020 00:00
Search period end: 04 March 2020 00:00
Orbit: 764 x 766 km, 98.1° (Epoch: 23 February)

Date Brightness Start Highest point End Pass type
(mag) Time Alt. Az. Time Alt. Az. Time Alt. Az.
23 Feb 6.5 04:59:10 10° ENE 05:01:21 13° E 05:03:32 10° ESE visible
23 Feb 4.0 17:52:58 10° S 17:57:56 52° W 18:02:54 10° NNW visible
24 Feb 4.4 05:59:19 10° NNE 06:04:12 45° E 06:09:03 10° S visible
24 Feb 6.3 18:57:53 10° WSW 19:00:42 15° W 19:03:32 10° NW visible
25 Feb 5.8 05:23:15 10° NE 05:27:09 22° E 05:31:01 10° SE visible
25 Feb 5.1 18:19:04 10° SSW 18:23:33 31° W 18:28:03 10° NNW visible
27 Feb 4.9 05:48:09 10° NNE 05:52:50 36° E 05:57:30 10° SSE visible
27 Feb 6.0 18:45:46 10° SW 18:49:16 19° W 18:52:47 10° NW visible
28 Feb 6.2 05:12:22 10° NE 05:15:43 17° E 05:19:04 10° SE visible
28 Feb 4.7 18:07:27 10° SSW 18:12:10 38° W 18:16:55 10° NNW visible
29 Feb 6.6 19:14:11 10° W 19:15:06 10° W 19:16:01 10° WNW visible
01 Mar 5.3 05:37:02 10° NE 05:41:27 29° E 05:45:51 10° SSE visible
01 Mar 5.7 18:33:51 10° SW 18:37:51 23° W 18:41:52 10° NW visible
02 Mar 6.4 05:01:42 10° ENE 05:04:17 14° E 05:06:51 10° ESE visible
02 Mar 4.3 17:55:56 10° S 18:00:48 48° W 18:05:44 10° NNW visible
03 Mar 6.3 19:01:10 10° WSW 19:03:38 13° W 19:06:07 10° WNW visible
